Weather in Nizhnyaya Ilenka

Russia / Sverdlovsk Oblast     57°33′40″N   64°01′53″E
temp.,
°C
wind,
m/s
gust,
m/s
humid.,
%
clouds,
%
prec.,
mm/h
press.,
hPa
HPBL,
m
13 may, thu
thu1323:00+16sw335258 0.0 102528
02:00+14wsw4958100 0.0 1025137
05:00+13w48645 0.0 1025120
08:00+19wnw47525 0.0 1025363
11:00+24nw683963 0.0 10241775
14:00+26nnw68325 0.0 10232441
17:00+27nnw57304 0.0 10232719
20:00+22ene474836 0.0 1024181
14 may, fri
fri1423:00+18sse22585 0.0 102516
02:00+16s33655 0.0 102530
05:00+15ssw34705 0.0 102667
08:00+21sw454923 0.0 1025325
11:00+27wsw46300 0.0 10242078
14:00+29w57255 0.0 10222878
17:00+29w67245 0.0 10213198
20:00+25w34375 0.0 102046
15 may, sat
sat1523:00+21wsw46395 0.0 102076
02:00+19w411515 0.0 1020190
05:00+17wsw41161100 0.0 1020215
08:00+23w6105069 0.0 1020493
11:00+27wnw711366 0.0 10191762
14:00+30wnw8112767 0.0 10183214
17:00+29wnw7103095 0.0 10182891
20:00+24w22435 0.1 101714
16 may, sun
sun1623:00+16nne51087100 3.4 1019240
02:00+16wsw357716 0.0 101986
05:00+16wsw358289 0.0 101981
08:00+22wsw35586 0.0 1019330
11:00+28w5635100 0.0 10181136
14:00+30w6823100 0.0 10172122
17:00+31wnw582286 0.0 10163063
20:00+26w33355 0.0 101640
17 may, mon
mon1723:00+22wsw49385 0.0 1016127
02:00+19w411485 0.0 1016181
05:00+18wsw410560 0.0 1016167
08:00+24wsw59431 0.0 1015389
11:00+29w710270 0.0 10142882
14:00+31w8112169 0.0 10133882
17:00+29wsw792393 0.0 10112800
20:00+21ne22565 0.3 101260